Colima, Mexico

4:26 AM CDT on April 25, 2017 (GMT -0500)
Colima

Weather History for MMIA - March, 2013

Change the Weather History Date:

Tuesday, March 5, 2013

  Actual Average Record
Temperature  
Mean Temperature 78 °F -  
Max Temperature 97 °F 83 °F 102 °F (2017)
Min Temperature 58 °F 66 °F 56 °F (2014)
Cooling Degree Days 12    
Growing Degree Days 28 (Base 50)    
Moisture  
Dew Point 52 °F    
Average Humidity 42    
Maximum Humidity 83    
Minimum Humidity 12    
Precipitation  
Precipitation 0.00 in - - ()
Sea Level Pressure  
Sea Level Pressure 30.01 in    
Wind  
Wind Speed 7 mph ()    
Max Wind Speed 17 mph    
Max Gust Speed -    
Visibility 7.2 miles    
Events      
Averages and records for this station are not official NWS values.
T = Trace of Precipitation, MM = Missing Value Source: Averaged Metar Reports

Daily Weather History Graph

Daily Weather History Graph

Search for Another Location

Airport or City:

Trip Planner

Search our weather history database for the weather conditions in past years. The results will help you decide how hot, cold, wet, or windy it might be!

Date:

Astronomy

Mar. 05, 2013 Rise Set
Actual Time 7:10 AM CST 7:01 PM CST
Civil Twilight 6:48 AM CST 7:23 PM CST
Nautical Twilight 6:23 AM CST 7:48 PM CST
Astronomical Twilight 5:57 AM CST 8:14 PM CST
Moon 1:50 AM CST (3/5) 1:16 PM CST (3/5)
Length of Visible Light 12h 34m
Length of Day
11h 50m
Last Quarter, 40% of the Moon is Illuminated
Mar 5
Last Quarter
Mar 11
New
Mar 19
First Quarter
Mar 27
Full
Apr 2
Last Quarter

Hourly Weather History & Observations

Time (CST) Temp. Dew Point Humidity Pressure Visibility Wind Dir Wind Speed Gust Speed Precip Events Conditions
2:45 AM 64 °F 54 °F 63% 29.99 in 5 mi NE 2.2 mph - -   Haze
5:48 AM 60 °F 52 °F 67% 30.01 in 5 mi NE 2.2 mph - -   Haze
6:07 AM 66.2 °F 60.8 °F 83% 30.07 in 8.0 mi North 11.5 mph - N/A   Clear
6:48 AM 66.2 °F 60.8 °F 83% 30.06 in 8.0 mi North 13.8 mph - N/A   Clear
7:51 AM 66.2 °F 60.8 °F 83% 30.09 in 8.0 mi North 11.5 mph - N/A   Clear
8:51 AM 72 °F 45 °F 27% 30.07 in 5 mi NE 4.5 mph - -   Haze
8:52 AM 71.6 °F 53.6 °F 53% 30.11 in 8.0 mi North 17.3 mph - N/A   Clear
9:43 AM 75.2 °F 50.0 °F 41% 30.11 in 8.0 mi North 17.3 mph - N/A   Clear
10:44 AM 80.6 °F 50.0 °F 34% 30.11 in 8.0 mi North 11.5 mph - N/A   Clear
11:47 AM 89 °F 44 °F 12% 30.02 in 5 mi NW 2.2 mph - -   Haze
11:59 AM 86.0 °F 50.0 °F 29% 30.08 in 8.0 mi Calm Calm - N/A   Clear
12:52 PM 86.0 °F 50.0 °F 29% 30.05 in 6.0 mi SSW 8.1 mph - N/A   Clear
1:53 PM 86.0 °F 50.0 °F 29% 30.00 in 6.0 mi SSW 9.2 mph - N/A   Clear
2:44 PM 89.6 °F 41.0 °F 18% 29.96 in 10.0 mi South 6.9 mph - N/A   Clear
2:53 PM 97 °F 53 °F 14% 29.86 in 6 mi SW 4.5 mph - -   Haze
3:48 PM 89.6 °F 46.4 °F 22% 29.92 in 10.0 mi WSW 17.3 mph - N/A   Clear
4:43 PM 84.2 °F 51.8 °F 33% 29.93 in 8.0 mi SW 11.5 mph - N/A   Scattered Clouds
5:43 PM 82.4 °F 51.8 °F 35% 29.95 in 8.0 mi WSW 17.3 mph - N/A   Scattered Clouds
5:50 PM 85 °F 60 °F 33% 29.84 in 6 mi SE 6.7 mph - -   Haze
6:47 PM 78.8 °F 46.4 °F 32% 29.98 in 8.0 mi WSW 9.2 mph - N/A   Scattered Clouds
7:40 PM 75.2 °F 50.0 °F 41% 30.00 in 8.0 mi West 13.8 mph - N/A   Scattered Clouds
8:40 PM 74 °F 58 °F 46% 29.91 in 6 mi SW 2.2 mph - -   Haze
9:00 PM 73.4 °F 51.8 °F 47% 30.03 in 8.0 mi WNW 11.5 mph - N/A   Scattered Clouds
9:40 PM 73.4 °F 46.4 °F 38% 30.04 in 8.0 mi WNW 11.5 mph - N/A   Scattered Clouds
11:40 PM 68 °F 55 °F 55% 29.97 in 6 mi East 2.2 mph - -   Haze